Location: Presov
(49.0000°N, 21.2500°E)
Time: 10:24:58
(UTC+02:00)

A-11 Canister half - Pass Details

Date: 19 April 2021
Orbit: 1526 x 1683 km, 47.3° (Epoch: 11 May)

Event Time Altitude Azimuth Distance (km) Brightness Sun altitude
Rises 00:21:54 0° 287° (WNW) 4,933 11.9 -29.8°
Reaches altitude 10° 00:26:59 10° 266° (W) 3,924 11.1 -29.8°
Enters shadow 00:30:43 15° 244° (WSW) 3,549 10.7 -29.8°
